Starlink 30451

decayed
NORAD ID: 57905 Int'l Des: 2023-146 Owner: SPXS Country: US Constellation: starlink
LEOCIRCULAR
Group

About Starlink 30451

Description loading...

Altitude History

Altitude vs Time

uPlot chart will show altitude changes over time

Two-Line Element Set

1 57905U 23146Q 26044.41240023 .01924218 30919-2 19580-2 0 9990
2 57905 42.9953 63.5915 0002387 153.2134 206.8872 16.10716952132601
Epoch: Feb 13, 2026 • Age: 144 hours

Current Status

Position data unavailable
Launch Date Sep 20, 2023
Age 2.4 years
Decay Date Feb 14, 2026
Type internet

Technical Details

Classification Payload
Mass 730.00 kg
Dry Mass 700.00 kg
Total Mass 730.00 kg
Length 0.30 m
Diameter 4.10 m
Span 29.00 m
Shape Box + pan
Manufacturer SPXS
Bus Type Starlink V2M
Phase Status Unknown Transfer Status
Owner/State SPXS/US

Large Constellations

Loading constellations...